This is the latest recevied weather packets stored in our database for station/object NK2J. If no packets are shown the sender has not sent any weather packets the latest 10 day(s).
| Time | Temp. | Humidity | Pressure | Rain* | Wind** | Luminosity | Snow |
|---|---|---|---|---|---|---|---|
| 1777966970 | 17.22° C | 73% | 1014.7 hPa | 0 mm | - | 0 W/m² | - |
| 1777966667 | 17.22° C | 70% | 1014.7 hPa | 0 mm | - | 0 W/m² | - |
| 1777966365 | 17.78° C | 68% | 1014.8 hPa | 0 mm | - | 0 W/m² | - |
| 1777966061 | 17.78° C | 67% | 1014.6 hPa | 0 mm | - | 0 W/m² | - |
| 1777965757 | 18.89° C | 63% | 1014.7 hPa | 0 mm | - | 0 W/m² | - |
| 1777965453 | 19.44° C | 55% | 1014.6 hPa | 0 mm | - | 0 W/m² | - |
| 1777965150 | 20° C | 51% | 1014.5 hPa | 0 mm | - | 0 W/m² | - |
| 1777964848 | 20° C | 49% | 1014.5 hPa | 0 mm | - | 0 W/m² | - |
| 1777964544 | 20° C | 48% | 1014.6 hPa | 0 mm | - | 0 W/m² | - |
| 1777964240 | 20° C | 48% | 1014.4 hPa | 0 mm | - | 0 W/m² | - |
| 1777963937 | 20° C | 47% | 1014.2 hPa | 0 mm | - | 0 W/m² | - |
| 1777963634 | 20° C | 47% | 1014.1 hPa | 0 mm | - | 0 W/m² | - |
| 1777963332 | 20° C | 47% | 1014 hPa | 0 mm | - | 0 W/m² | - |
| 1777963029 | 20° C | 46% | 1013.9 hPa | 0 mm | - | 0 W/m² | - |
| 1777962725 | 20.56° C | 45% | 1013.9 hPa | 0 mm | - | 0 W/m² | - |
| 1777962421 | 20.56° C | 44% | 1013.9 hPa | 0 mm | - | 0 W/m² | - |
| 1777962119 | 20.56° C | 44% | 1013.9 hPa | 0 mm | - | 0 W/m² | - |
| 1777961816 | 20.56° C | 43% | 1014 hPa | 0 mm | - | 0 W/m² | - |
| 1777961514 | 20.56° C | 42% | 1013.9 hPa | 0 mm | - | 0 W/m² | - |
| 1777961211 | 20.56° C | 42% | 1013.9 hPa | 0 mm | - | 0 W/m² | - |
| 1777960908 | 20.56° C | 42% | 1014 hPa | 0 mm | - | 0 W/m² | - |
| 1777960603 | 20.56° C | 40% | 1013.8 hPa | 0 mm | - | 0 W/m² | - |
| 1777960300 | 21.11° C | 39% | 1014.2 hPa | 0 mm | - | 0 W/m² | - |
| 1777959997 | 21.11° C | 38% | 1014.4 hPa | 0 mm | - | 0 W/m² | - |
| 1777959695 | 21.11° C | 37% | 1014.2 hPa | 0 mm | - | 0 W/m² | - |
* Rain latest hour (hover to see other rain measurements)
** Current wind speed in m/s (hover to see current wind gust speed)